DW9082 Weather Reports


Display with metric or nautical units.
time (UTC)temp
F
wind
direction
speed
MPH
gust
MPH
rain 1hr
in
rain 24hr
in
rain mn
in
humidity
%
barometer
mb
20260506181540 65 243 5.0 15.0 0.00 0.00 0.00 81 1008.6
20260506180022 65 156 10.0 19.0 0.00 0.00 0.00 81 1008.7
20260506174540 65 210 7.0 19.0 0.00 0.00 0.00 80 1008.7
20260506173024 65 228 10.0 20.0 0.00 0.00 0.00 79 1008.8
20260506171554 66 250 6.0 20.0 0.00 0.00 0.00 79 1008.9
20260506170100 66 270 8.0 21.0 0.00 0.00 0.00 79 1009.2
20260506170010 66 225 8.0 21.0 0.00 0.00 0.00 79 1009.1
20260506164536 66 200 8.0 17.0 0.00 0.00 0.00 79 1009.2
20260506163012 66 225 3.0 12.0 0.00 0.00 0.00 82 1009.4
20260506161546 67 237 8.0 17.0 0.00 0.00 0.00 75 1009.9
20260506160020 68 215 9.0 17.0 0.00 0.00 0.00 71 1010.1
20260506154558 68 217 7.0 14.0 0.00 0.00 0.00 70 1010.2
20260506153020 68 175 7.0 14.0 0.00 0.00 0.00 68 1010.0
20260506151559 68 145 5.0 22.0 0.00 0.00 0.00 68 1010.1
20260506150018 68 194 7.0 16.0 0.00 0.00 0.00 68 1010.1
20260506144600 68 243 5.0 15.0 0.00 0.00 0.00 69 1010.2
20260506143032 67 229 7.0 17.0 0.00 0.00 0.00 69 1010.3
20260506141508 68 250 7.0 13.0 0.00 0.00 0.00 68 1010.4
20260506140042 68 174 10.0 19.0 0.00 0.00 0.00 67 1010.3
20260506134558 67 163 8.0 17.0 0.00 0.00 0.00 68 1010.1
20260506133036 67 212 7.0 18.0 0.00 0.00 0.00 68 1010.1
20260506131607 67 194 8.0 17.0 0.00 0.00 0.00 68 1010.1
20260506130026 67 195 8.0 18.0 0.00 0.00 0.00 68 1010.4
20260506124506 67 159 10.0 18.0 0.00 0.00 0.00 69 1010.5
20260506123040 67 190 5.0 16.0 0.00 0.00 0.00 70 1010.3
20260506121559 66 134 8.0 22.0 0.00 0.00 0.00 71 1010.4
20260506120034 65 177 6.0 18.0 0.00 0.00 0.00 74 1010.4
20260506114532 65 255 7.0 17.0 0.00 0.00 0.00 74 1010.3
20260506113042 64 190 6.0 18.0 0.00 0.00 0.00 75 1010.4
20260506111520 64 142 3.0 16.0 0.00 0.00 0.00 77 1010.4
20260506110039 63 205 6.0 17.0 0.00 0.00 0.00 78 1010.6
20260506104513 63 200 4.0 14.0 0.00 0.00 0.00 78 1010.4
20260506103008 62 137 4.0 12.0 0.00 0.00 0.00 80 1010.4
20260506101530 61 160 2.0 12.0 0.00 0.00 0.00 81 1010.5
20260506100013 62 156 3.0 10.0 0.00 0.00 0.00 81 1010.3
20260506094526 62 156 4.0 14.0 0.00 0.00 0.00 82 1010.1
20260506093022 62 226 4.0 12.0 0.00 0.00 0.00 82 1010.2
20260506091557 62 162 5.0 17.0 0.00 0.00 0.00 82 1010.1
20260506090012 62 169 6.0 18.0 0.00 0.00 0.00 82 1010.3
20260506084505 62 219 4.0 15.0 0.00 0.00 0.00 82 1010.3
20260506083028 62 178 5.0 12.0 0.00 0.00 0.00 82 1010.5
20260506081506 62 173 3.0 13.0 0.00 0.00 0.00 82 1010.6
20260506073007 63 173 5.0 12.0 0.00 0.00 0.00 82 1010.4
20260506071506 63 210 5.0 14.0 0.00 0.00 0.00 81 1010.5
20260506061513 64 155 5.0 16.0 0.00 0.00 0.00 80 1010.8
20260506044555 65 229 6.0 16.0 0.00 0.00 0.00 78 1011.3
20260506043019 65 134 6.0 15.0 0.00 0.00 0.00 78 1011.3
20260506041604 65 165 3.0 14.0 0.00 0.00 0.00 77 1011.4
20260506040018 65 198 2.0 11.0 0.00 0.00 0.00 76 1011.2
20260506034551 65 201 5.0 13.0 0.00 0.00 0.00 75 1011.3
20260506033036 65 149 6.0 23.0 0.00 0.00 0.00 74 1011.3
20260506031552 66 173 6.0 14.0 0.00 0.00 0.00 74 1011.3
20260506030038 66 195 3.0 10.0 0.00 0.00 0.00 73 1011.3
20260506024557 66 150 6.0 13.0 0.00 0.00 0.00 72 1011.5
20260506023035 67 211 7.0 18.0 0.00 0.00 0.00 70 1011.4
20260506021556 67 248 7.0 16.0 0.00 0.00 0.00 69 1011.3
20260506020029 67 155 6.0 20.0 0.00 0.00 0.00 67 1011.3
20260506014514 68 169 6.0 16.0 0.00 0.00 0.00 66 1011.1
20260506013044 68 179 8.0 16.0 0.00 0.00 0.00 65 1011.2
20260506011600 69 105 7.0 19.0 0.00 0.00 0.00 63 1010.8
20260506011508 69 197 7.0 19.0 0.00 0.00 0.00 63 1010.9
20260506010050 69 218 5.0 22.0 0.00 0.00 0.00 63 1010.7
20260506004543 69 178 6.0 17.0 0.00 0.00 0.00 64 1010.7
20260506003059 69 142 5.0 15.0 0.00 0.00 0.00 63 1010.4
20260506003000 69 43 5.0 15.0 0.00 0.00 0.00 63 1010.3
20260506001515 70 176 7.0 17.0 0.00 0.00 0.00 62 1010.3
20260506000046 71 243 7.0 15.0 0.00 0.00 0.00 61 1010.3
20260505234535 72 153 5.0 16.0 0.00 0.00 0.00 57 1010.2
20260505233048 73 156 4.0 20.0 0.00 0.00 0.00 53 1010.0
20260505231527 75 181 7.0 17.0 0.00 0.00 0.00 49 1009.9
20260505230053 77 163 6.0 15.0 0.00 0.00 0.00 46 1009.8
20260505224517 78 166 7.0 21.0 0.00 0.00 0.00 41 1009.6
20260505223051 78 225 8.0 19.0 0.00 0.00 0.00 41 1009.8
20260505221531 79 184 4.0 17.0 0.00 0.00 0.00 41 1009.6
20260505220048 80 229 5.0 21.0 0.00 0.00 0.00 41 1009.5
20260505214535 80 224 6.0 25.0 0.00 0.00 0.00 40 1009.5
20260505213050 80 155 8.0 19.0 0.00 0.00 0.00 39 1009.3
20260505211523 81 224 7.0 22.0 0.00 0.00 0.00 37 1009.3
20260505210107 81 175 10.0 21.0 0.00 0.00 0.00 37 1009.1
20260505210002 81 49 9.0 21.0 0.00 0.00 0.00 37 1009.2
20260505204522 81 243 11.0 23.0 0.00 0.00 0.00 36 1009.0
20260505203055 82 181 10.0 20.0 0.00 0.00 0.00 36 1009.1
20260505201532 82 158 11.0 26.0 0.00 0.00 0.00 37 1009.2
20260505200045 81 226 11.0 27.0 0.00 0.00 0.00 37 1009.3
20260505194530 82 173 8.0 20.0 0.00 0.00 0.00 39 1009.2
20260505193014 81 219 11.0 22.0 0.00 0.00 0.00 39 1009.3
20260505191555 81 262 8.0 24.0 0.00 0.00 0.00 41 1009.6
20260505190019 81 217 5.0 28.0 0.00 0.00 0.00 42 1009.8
20260505184554 81 188 10.0 23.0 0.00 0.00 0.00 42 1010.2
20260505183030 81 255 8.0 24.0 0.00 0.00 0.00 41 1010.2